When you browse on this site, cookies collect data to enhance your experience and personalize the content and advertising you see.
Visit our Privacy Policy to learn more. By continuing to use the site, you agree to this use of cookies and data.
  • In Hungary
  • List of Countries
  • For 7 days
  • Water Temperature
  • Satellite Maps
  • Weather Map
  • News
  • Weather Widgets
  • user-avatar
    Login

    Hourly Weather Bekescsaba

    Today, 13 December, Thursday

    Time Temperature Precipitation Wind Pressure Humidity
    00:00 0°C° 0 mm 1 mps 758 mmHg 90%
    01:00 +1°C° 0 mm 1 mps 758 mmHg 90%
    02:00 +1°C° 0 mm 1 mps 758 mmHg 90%
    03:00 +1°C° 0 mm 1 mps 758 mmHg 90%
    04:00 -1°C° 0 mm 0 mps 758 mmHg 90%
    05:00 -1°C° 0 mm 0 mps 758 mmHg 90%
    06:00 -1°C° 0 mm 0 mps 758 mmHg 90%
    07:00 -1°C° 0 mm 0 mps 758 mmHg 90%
    08:00 0°C° 0 mm 0 mps 758 mmHg 85%
    09:00 +1°C° 0 mm 0 mps 758 mmHg 80%
    10:00 +2°C° 0 mm 0 mps 758 mmHg 75%
    11:00 +2°C° 0 mm 0 mps 758 mmHg 71%
    12:00 +4°C° 0 mm 1 mps 758 mmHg 67%
    13:00 +4°C° 0 mm 1 mps 757 mmHg 63%
    14:00 +3°C° 0 mm 1 mps 757 mmHg 67%
    15:00 +2°C° 0 mm 1 mps 757 mmHg 71%
    16:00 +2°C° 0 mm 1 mps 757 mmHg 75%
    17:00 +1°C° 0 mm 1 mps 757 mmHg 77%
    18:00 +1°C° 0 mm 1 mps 757 mmHg 79%
    19:00 +1°C° 0 mm 1 mps 757 mmHg 80%
    20:00 +1°C° 0 mm 1 mps 757 mmHg 80%
    21:00 0°C° 0 mm 1 mps 757 mmHg 80%
    22:00 0°C° 0 mm 1 mps 757 mmHg 80%
    23:00 -2°C° 0 mm 2 mps 757 mmHg 80%

    Tomorrow, 14 December, Friday

    Time Temperature Precipitation Wind Pressure Humidity
    00:00 -2°C° 0 mm 2 mps 758 mmHg 79%
    01:00 -2°C° 0 mm 2 mps 758 mmHg 79%
    02:00 -2°C° 0 mm 2 mps 758 mmHg 79%
    03:00 -2°C° 0 mm 2 mps 758 mmHg 80%
    04:00 -2°C° 0 mm 2 mps 757 mmHg 81%
    05:00 -2°C° 0 mm 2 mps 758 mmHg 82%
    06:00 -2°C° 0 mm 2 mps 758 mmHg 83%
    07:00 -2°C° 0 mm 2 mps 758 mmHg 84%
    08:00 -2°C° 0 mm 3 mps 758 mmHg 79%
    09:00 -1°C° 0 mm 3 mps 758 mmHg 73%
    10:00 0°C° 0 mm 3 mps 758 mmHg 68%
    11:00 +1°C° 0 mm 3 mps 758 mmHg 65%
    12:00 +2°C° 0 mm 3 mps 758 mmHg 62%
    13:00 +2°C° 0 mm 3 mps 758 mmHg 59%
    14:00 +2°C° 0 mm 3 mps 758 mmHg 63%
    15:00 +1°C° 0 mm 3 mps 758 mmHg 68%
    16:00 0°C° 0 mm 3 mps 758 mmHg 73%
    17:00 0°C° 0 mm 3 mps 758 mmHg 73%
    18:00 -1°C° 0 mm 3 mps 758 mmHg 73%
    19:00 -1°C° 0 mm 3 mps 758 mmHg 74%
    20:00 -1°C° 0 mm 3 mps 758 mmHg 73%
    21:00 -1°C° 0 mm 3 mps 758 mmHg 73%
    22:00 -1°C° 0 mm 3 mps 758 mmHg 73%
    23:00 -1°C° 0 mm 3 mps 758 mmHg 72%

    Day after tomorrow, 15 December, Saturday

    Time Temperature Precipitation Wind Pressure Humidity
    00:00 -1°C° 0 mm 3 mps 757 mmHg 72%
    01:00 -1°C° 0 mm 3 mps 757 mmHg 71%
    02:00 -1°C° 0.2 mm 3 mps 757 mmHg 72%
    03:00 -1°C° 0.2 mm 3 mps 757 mmHg 73%
    04:00 -1°C° 0.2 mm 3 mps 756 mmHg 74%
    05:00 -1°C° 0.3 mm 3 mps 756 mmHg 75%
    06:00 -1°C° 0.3 mm 3 mps 756 mmHg 76%
    07:00 -1°C° 0.3 mm 3 mps 756 mmHg 76%
    08:00 -1°C° 0.3 mm 3 mps 756 mmHg 77%
    09:00 0°C° 0.3 mm 3 mps 756 mmHg 77%
    10:00 0°C° 0.3 mm 3 mps 756 mmHg 77%
    11:00 0°C° 0.6 mm 3 mps 756 mmHg 81%
    12:00 0°C° 0.6 mm 3 mps 756 mmHg 84%
    13:00 0°C° 0.6 mm 3 mps 756 mmHg 88%
    14:00 0°C° 0.6 mm 3 mps 756 mmHg 89%
    15:00 0°C° 0.6 mm 3 mps 756 mmHg 91%
    16:00 -1°C° 0.6 mm 3 mps 756 mmHg 92%
    17:00 -1°C° 0.5 mm 3 mps 756 mmHg 93%
    18:00 -1°C° 0.5 mm 3 mps 756 mmHg 93%
    19:00 -1°C° 0.5 mm 3 mps 756 mmHg 94%
    20:00 -1°C° 0.6 mm 3 mps 756 mmHg 94%
    21:00 -1°C° 0.6 mm 3 mps 756 mmHg 95%
    22:00 -1°C° 0.6 mm 3 mps 756 mmHg 95%
    23:00 -1°C° 0.5 mm 3 mps 756 mmHg 95%

    16 December, Sunday

    Time Temperature Precipitation Wind Pressure Humidity
    00:00 -1°C° 0.5 mm 2 mps 755 mmHg 96%
    01:00 -1°C° 0.5 mm 2 mps 755 mmHg 96%
    02:00 -1°C° 0.4 mm 2 mps 755 mmHg 96%
    03:00 -1°C° 0.4 mm 2 mps 755 mmHg 96%
    04:00 -1°C° 0.4 mm 2 mps 755 mmHg 96%
    05:00 -2°C° 0.1 mm 2 mps 755 mmHg 96%
    06:00 -2°C° 0.1 mm 2 mps 755 mmHg 96%
    07:00 -2°C° 0.1 mm 2 mps 756 mmHg 95%
    08:00 -2°C° 0.1 mm 2 mps 756 mmHg 95%
    09:00 -1°C° 0.1 mm 2 mps 756 mmHg 95%
    10:00 -1°C° 0.1 mm 2 mps 757 mmHg 94%
    11:00 -1°C° 0 mm 2 mps 757 mmHg 94%
    12:00 -1°C° 0 mm 2 mps 757 mmHg 94%
    13:00 -1°C° 0 mm 2 mps 757 mmHg 94%
    14:00 -2°C° 0 mm 2 mps 757 mmHg 94%
    15:00 0°C° 0 mm 1 mps 757 mmHg 94%
    16:00 -1°C° 0 mm 1 mps 758 mmHg 93%
    17:00 -1°C° 0 mm 1 mps 758 mmHg 93%
    18:00 -2°C° 0 mm 1 mps 758 mmHg 93%
    19:00 -2°C° 0 mm 1 mps 758 mmHg 94%
    20:00 -2°C° 0 mm 1 mps 758 mmHg 93%
    21:00 -3°C° 0 mm 1 mps 759 mmHg 93%
    22:00 -3°C° 0 mm 1 mps 759 mmHg 93%
    23:00 -4°C° 0 mm 1 mps 759 mmHg 93%

    17 December, Monday

    Time Temperature Precipitation Wind Pressure Humidity
    00:00 -4°C° 0 mm 1 mps 759 mmHg 93%
    01:00 -5°C° 0 mm 0 mps 759 mmHg 94%
    02:00 -5°C° 0 mm 0 mps 759 mmHg 94%
    03:00 -4°C° 0 mm 1 mps 759 mmHg 94%
    04:00 -4°C° 0 mm 1 mps 759 mmHg 94%
    05:00 -3°C° 0 mm 1 mps 759 mmHg 94%
    06:00 -3°C° 0 mm 1 mps 759 mmHg 94%
    07:00 -4°C° 0 mm 0 mps 759 mmHg 94%
    08:00 -3°C° 0 mm 0 mps 759 mmHg 93%
    09:00 -2°C° 0 mm 1 mps 759 mmHg 92%
    10:00 -1°C° 0 mm 1 mps 759 mmHg 91%
    11:00 -1°C° 0 mm 1 mps 759 mmHg 91%
    12:00 -1°C° 0 mm 1 mps 759 mmHg 90%
    13:00 0°C° 0 mm 1 mps 759 mmHg 90%
    14:00 -1°C° 0 mm 1 mps 759 mmHg 91%
    15:00 -1°C° 0 mm 1 mps 759 mmHg 92%
    16:00 -1°C° 0 mm 1 mps 759 mmHg 93%
    17:00 -1°C° 0 mm 1 mps 760 mmHg 93%
    18:00 -2°C° 0 mm 1 mps 760 mmHg 93%
    19:00 -2°C° 0 mm 1 mps 760 mmHg 93%
    20:00 -2°C° 0 mm 1 mps 760 mmHg 93%
    21:00 -2°C° 0 mm 1 mps 761 mmHg 93%
    22:00 -2°C° 0 mm 1 mps 761 mmHg 93%
    23:00 -2°C° 0 mm 1 mps 761 mmHg 93%

    18 December, Tuesday

    Time Temperature Precipitation Wind Pressure Humidity
    00:00 -2°C° 0 mm 1 mps 761 mmHg 92%
    01:00 -2°C° 0 mm 1 mps 761 mmHg 92%
    02:00 -2°C° 0 mm 1 mps 761 mmHg 92%
    03:00 -3°C° 0 mm 1 mps 761 mmHg 92%
    04:00 -3°C° 0 mm 1 mps 761 mmHg 92%
    05:00 -3°C° 0 mm 1 mps 761 mmHg 93%
    06:00 -3°C° 0 mm 1 mps 761 mmHg 93%
    07:00 -3°C° 0 mm 1 mps 761 mmHg 93%
    08:00 -3°C° 0 mm 1 mps 761 mmHg 92%
    09:00 -2°C° 0 mm 1 mps 761 mmHg 92%
    10:00 -2°C° 0 mm 1 mps 761 mmHg 91%
    11:00 -1°C° 0 mm 1 mps 761 mmHg 90%
    12:00 -1°C° 0 mm 1 mps 761 mmHg 89%
    13:00 -1°C° 0 mm 1 mps 761 mmHg 89%
    14:00 -1°C° 0 mm 1 mps 761 mmHg 90%
    15:00 -2°C° 0 mm 1 mps 761 mmHg 91%
    16:00 -3°C° 0 mm 1 mps 761 mmHg 93%
    17:00 -3°C° 0 mm 1 mps 761 mmHg 93%
    18:00 -3°C° 0 mm 1 mps 761 mmHg 94%
    19:00 -4°C° 0 mm 1 mps 761 mmHg 94%
    20:00 -4°C° 0 mm 1 mps 761 mmHg 94%
    21:00 -6°C° 0 mm 2 mps 761 mmHg 94%
    22:00 -6°C° 0 mm 2 mps 761 mmHg 95%
    23:00 -6°C° 0 mm 2 mps 761 mmHg 95%
    Show more